Retour au catalogue

FFLY-1

ActifScienceSSO
NORAD 65320·PAYLOAD·🇺🇸 United States

Lancé Aug 26, 2025 depuis Vandenberg Space Force Base

Loading…

Prochains Passages (prochaines 24 heures)

TLE

FraisSource: Space-Track

Époque: Sep 14, 2026, 12:36 UTC

1 65320U 25188F   26257.52524091  .00000661  00000-0  69316-4 0  9992
2 65320  97.7311 331.2258 0008425 232.6575 127.3878 14.92831595 57239

Suivez FFLY-1 en temps réel avec AllMySat

Download on the App Store